Time,TemperatureF,DewpointF,PressureIn,WindDirection,WindDirectionDegrees,WindSpeedMPH,WindSpeedGustMPH,Humidity,HourlyPrecipIn,Conditions,Clouds,dailyrainin,SoftwareType,DateUTC
2013-04-11 00:00:00,35.2,18.9,30.06,WNW,284,0.0,0.0,51,0.00,,,0.00,Wunderground v.1.15,2013-04-11 06:00:00,
2013-04-11 00:05:00,35.0,18.7,30.06,WNW,284,0.0,0.0,51,0.00,,,0.00,Wunderground v.1.15,2013-04-11 06:05:00,
2013-04-11 00:10:00,34.8,18.5,30.06,WNW,284,0.0,0.0,51,0.00,,,0.00,Wunderground v.1.15,2013-04-11 06:10:00,
2013-04-11 00:15:00,34.4,18.6,30.06,WNW,284,0.0,0.0,52,0.00,,,0.00,Wunderground v.1.15,2013-04-11 06:15:00,
2013-04-11 00:20:00,34.3,18.5,30.06,WNW,284,0.0,0.0,52,0.00,,,0.00,Wunderground v.1.15,2013-04-11 06:20:00,
2013-04-11 00:25:00,33.9,18.6,30.06,WNW,284,0.0,0.0,53,0.00,,,0.00,Wunderground v.1.15,2013-04-11 06:25:00,
2013-04-11 00:35:00,33.8,18.9,30.06,WNW,284,0.0,0.0,54,0.00,,,0.00,Wunderground v.1.15,2013-04-11 06:35:00,
2013-04-11 00:40:00,33.7,18.8,30.06,WNW,284,0.0,0.0,54,0.00,,,0.00,Wunderground v.1.15,2013-04-11 06:40:00,
2013-04-11 00:45:00,33.6,18.7,30.06,WNW,284,0.0,0.0,54,0.00,,,0.00,Wunderground v.1.15,2013-04-11 06:45:00,
2013-04-11 00:50:00,33.5,19.0,30.06,WNW,284,0.0,0.0,55,0.00,,,0.00,Wunderground v.1.15,2013-04-11 06:50:00,
2013-04-11 00:55:00,33.5,19.0,30.05,WNW,284,0.0,0.0,55,0.00,,,0.00,Wunderground v.1.15,2013-04-11 06:55:00,
2013-04-11 01:00:00,33.5,19.0,30.05,WNW,284,0.0,0.0,55,0.00,,,0.00,Wunderground v.1.15,2013-04-11 07:00:00,
2013-04-11 01:05:00,33.4,18.9,30.05,WNW,284,0.0,0.0,55,0.00,,,0.00,Wunderground v.1.15,2013-04-11 07:05:00,
2013-04-11 01:10:00,33.3,18.9,30.05,WNW,284,0.0,0.0,55,0.00,,,0.00,Wunderground v.1.15,2013-04-11 07:10:00,
2013-04-11 01:15:00,33.3,18.9,30.05,WNW,284,0.0,0.0,55,0.00,,,0.00,Wunderground v.1.15,2013-04-11 07:15:00,
2013-04-11 01:20:00,33.2,19.2,30.06,WNW,284,0.0,0.0,56,0.00,,,0.00,Wunderground v.1.15,2013-04-11 07:20:00,
2013-04-11 01:25:00,33.2,19.2,30.05,WNW,284,0.0,0.0,56,0.00,,,0.00,Wunderground v.1.15,2013-04-11 07:25:00,
2013-04-11 01:30:00,33.1,19.1,30.05,WNW,284,0.0,0.0,56,0.00,,,0.00,Wunderground v.1.15,2013-04-11 07:30:00,
2013-04-11 01:35:00,33.0,19.4,30.05,WNW,284,0.0,0.0,57,0.00,,,0.00,Wunderground v.1.15,2013-04-11 07:35:00,
2013-04-11 01:40:00,32.9,19.3,30.05,WNW,284,0.0,0.0,57,0.00,,,0.00,Wunderground v.1.15,2013-04-11 07:40:00,
2013-04-11 01:45:00,32.8,19.2,30.05,WNW,284,0.0,0.0,57,0.00,,,0.00,Wunderground v.1.15,2013-04-11 07:45:00,
2013-04-11 01:50:00,32.6,19.0,30.05,WNW,284,0.0,0.0,57,0.00,,,0.00,Wunderground v.1.15,2013-04-11 07:50:00,
2013-04-11 01:55:00,32.5,19.3,30.05,WNW,284,0.0,0.0,58,0.00,,,0.00,Wunderground v.1.15,2013-04-11 07:55:00,
2013-04-11 02:00:00,32.7,19.1,30.05,WNW,284,0.0,0.0,57,0.00,,,0.00,Wunderground v.1.15,2013-04-11 08:00:00,
2013-04-11 02:05:00,32.7,19.1,30.05,WNW,284,0.0,0.0,57,0.00,,,0.00,Wunderground v.1.15,2013-04-11 08:05:00,
2013-04-11 02:10:00,32.6,19.0,30.05,WNW,284,0.0,0.0,57,0.00,,,0.00,Wunderground v.1.15,2013-04-11 08:10:00,
2013-04-11 02:15:00,32.4,18.8,30.05,WNW,284,0.0,0.0,57,0.00,,,0.00,Wunderground v.1.15,2013-04-11 08:15:00,
2013-04-11 02:20:00,32.1,19.0,30.05,WNW,284,0.0,0.0,58,0.00,,,0.00,Wunderground v.1.15,2013-04-11 08:20:00,
2013-04-11 02:25:00,32.0,18.9,30.04,WNW,284,0.0,0.0,58,0.00,,,0.00,Wunderground v.1.15,2013-04-11 08:25:00,
2013-04-11 02:30:00,31.8,18.7,30.04,WNW,284,0.0,0.0,58,0.00,,,0.00,Wunderground v.1.15,2013-04-11 08:30:00,
2013-04-11 02:35:00,31.6,18.9,30.05,WNW,284,0.0,0.0,59,0.00,,,0.00,Wunderground v.1.15,2013-04-11 08:35:00,
2013-04-11 02:40:00,31.4,18.7,30.04,WNW,284,0.0,0.0,59,0.00,,,0.00,Wunderground v.1.15,2013-04-11 08:40:00,
2013-04-11 02:45:00,31.3,18.6,30.04,WNW,284,0.0,0.0,59,0.00,,,0.00,Wunderground v.1.15,2013-04-11 08:45:00,
2013-04-11 02:50:00,31.1,18.8,30.04,WNW,284,0.0,0.0,60,0.00,,,0.00,Wunderground v.1.15,2013-04-11 08:50:00,
2013-04-11 02:55:00,31.1,18.8,30.04,WNW,284,0.0,0.0,60,0.00,,,0.00,Wunderground v.1.15,2013-04-11 08:55:00,
2013-04-11 03:00:00,30.9,19.0,30.03,WNW,284,0.0,0.0,61,0.00,,,0.00,Wunderground v.1.15,2013-04-11 09:00:00,
2013-04-11 03:05:00,30.7,18.8,30.03,WNW,284,0.0,0.0,61,0.00,,,0.00,Wunderground v.1.15,2013-04-11 09:05:00,
2013-04-11 03:10:00,30.4,18.9,30.04,WNW,284,0.0,0.0,62,0.00,,,0.00,Wunderground v.1.15,2013-04-11 09:10:00,
2013-04-11 03:15:00,30.2,18.7,30.04,WNW,284,0.0,0.0,62,0.00,,,0.00,Wunderground v.1.15,2013-04-11 09:15:00,
2013-04-11 03:20:00,29.9,18.8,30.04,WNW,284,0.0,0.0,63,0.00,,,0.00,Wunderground v.1.15,2013-04-11 09:20:00,
2013-04-11 03:25:00,29.7,18.6,30.04,WNW,284,0.0,1.0,63,0.00,,,0.00,Wunderground v.1.15,2013-04-11 09:25:00,
2013-04-11 03:30:00,30.0,18.9,30.04,WNW,284,0.0,0.0,63,0.00,,,0.00,Wunderground v.1.15,2013-04-11 09:30:00,
2013-04-11 03:35:00,30.3,19.2,30.03,WNW,284,0.0,0.0,63,0.00,,,0.00,Wunderground v.1.15,2013-04-11 09:35:00,
2013-04-11 03:40:00,30.3,18.8,30.03,WNW,284,0.0,0.0,62,0.00,,,0.00,Wunderground v.1.15,2013-04-11 09:40:00,
2013-04-11 03:45:00,30.1,18.6,30.03,WNW,284,0.0,0.0,62,0.00,,,0.00,Wunderground v.1.15,2013-04-11 09:45:00,
2013-04-11 03:50:00,29.9,18.5,30.03,WNW,284,0.0,0.0,62,0.00,,,0.00,Wunderground v.1.15,2013-04-11 09:50:00,
2013-04-11 03:55:00,29.8,18.4,30.03,WNW,284,0.0,0.0,62,0.00,,,0.00,Wunderground v.1.15,2013-04-11 09:55:00,
2013-04-11 04:00:00,29.8,18.4,30.03,WNW,284,0.0,0.0,62,0.00,,,0.00,Wunderground v.1.15,2013-04-11 10:00:00,
2013-04-11 04:05:00,29.9,18.1,30.03,WNW,284,0.0,0.0,61,0.00,,,0.00,Wunderground v.1.15,2013-04-11 10:05:00,
2013-04-11 04:10:00,31.3,16.6,30.03,NW,318,1.0,3.0,54,0.00,,,0.00,Wunderground v.1.15,2013-04-11 10:10:00,
2013-04-11 04:15:00,34.1,16.4,30.03,NNW,346,2.0,3.0,48,0.00,,,0.00,Wunderground v.1.15,2013-04-11 10:15:00,
2013-04-11 04:20:00,35.9,16.1,30.03,North,355,3.0,3.0,44,0.00,,,0.00,Wunderground v.1.15,2013-04-11 10:20:00,
2013-04-11 04:25:00,36.5,16.1,30.03,NNW,342,2.0,3.0,43,0.00,,,0.00,Wunderground v.1.15,2013-04-11 10:25:00,
2013-04-11 04:30:00,36.7,16.3,30.03,NW,315,2.0,2.0,43,0.00,,,0.00,Wunderground v.1.15,2013-04-11 10:30:00,
2013-04-11 04:35:00,36.6,15.6,30.03,NW,315,1.0,2.0,42,0.00,,,0.00,Wunderground v.1.15,2013-04-11 10:35:00,
2013-04-11 04:40:00,36.4,16.0,30.04,NW,315,1.0,1.0,43,0.00,,,0.00,Wunderground v.1.15,2013-04-11 10:40:00,
2013-04-11 04:45:00,36.0,15.6,30.03,NW,315,0.0,1.0,43,0.00,,,0.00,Wunderground v.1.15,2013-04-11 10:45:00,
2013-04-11 04:50:00,35.5,15.7,30.03,NW,315,0.0,0.0,44,0.00,,,0.00,Wunderground v.1.15,2013-04-11 10:50:00,
2013-04-11 04:55:00,34.9,15.7,30.03,NW,315,0.0,0.0,45,0.00,,,0.00,Wunderground v.1.15,2013-04-11 10:55:00,
2013-04-11 05:00:00,34.4,15.7,30.03,NW,315,0.0,0.0,46,0.00,,,0.00,Wunderground v.1.15,2013-04-11 11:00:00,
2013-04-11 05:05:00,34.1,15.9,30.03,NW,315,0.0,0.0,47,0.00,,,0.00,Wunderground v.1.15,2013-04-11 11:05:00,
2013-04-11 05:10:00,33.8,15.7,30.04,NW,315,0.0,0.0,47,0.00,,,0.00,Wunderground v.1.15,2013-04-11 11:10:00,
2013-04-11 05:15:00,33.5,15.9,30.04,NW,315,0.0,0.0,48,0.00,,,0.00,Wunderground v.1.15,2013-04-11 11:15:00,
2013-04-11 05:20:00,33.3,15.7,30.04,NW,315,0.0,0.0,48,0.00,,,0.00,Wunderground v.1.15,2013-04-11 11:20:00,
2013-04-11 05:25:00,33.0,15.9,30.04,NW,315,0.0,0.0,49,0.00,,,0.00,Wunderground v.1.15,2013-04-11 11:25:00,
2013-04-11 05:30:00,32.6,16.0,30.05,NW,315,0.0,4.0,50,0.00,,,0.00,Wunderground v.1.15,2013-04-11 11:30:00,
2013-04-11 05:35:00,32.2,16.1,30.05,NW,315,0.0,4.0,51,0.00,,,0.00,Wunderground v.1.15,2013-04-11 11:35:00,
2013-04-11 05:40:00,31.9,16.2,30.05,NW,315,0.0,0.0,52,0.00,,,0.00,Wunderground v.1.15,2013-04-11 11:40:00,
2013-04-11 05:45:00,31.5,15.9,30.05,NW,315,0.0,0.0,52,0.00,,,0.00,Wunderground v.1.15,2013-04-11 11:45:00,
2013-04-11 05:50:00,31.2,16.0,30.05,NW,315,0.0,0.0,53,0.00,,,0.00,Wunderground v.1.15,2013-04-11 11:50:00,
2013-04-11 05:55:00,31.0,16.3,30.05,NW,315,0.0,0.0,54,0.00,,,0.00,Wunderground v.1.15,2013-04-11 11:55:00,
2013-04-11 06:00:00,30.9,16.2,30.05,NW,315,0.0,0.0,54,0.00,,,0.00,Wunderground v.1.15,2013-04-11 12:00:00,
2013-04-11 06:05:00,30.8,16.5,30.05,NW,315,0.0,0.0,55,0.00,,,0.00,Wunderground v.1.15,2013-04-11 12:05:00,
2013-04-11 06:10:00,30.9,16.6,30.06,NW,315,0.0,0.0,55,0.00,,,0.00,Wunderground v.1.15,2013-04-11 12:10:00,
2013-04-11 06:15:00,30.9,16.6,30.06,NW,315,0.0,0.0,55,0.00,,,0.00,Wunderground v.1.15,2013-04-11 12:15:00,
2013-04-11 06:20:00,30.9,16.6,30.06,NW,315,0.0,0.0,55,0.00,,,0.00,Wunderground v.1.15,2013-04-11 12:20:00,
2013-04-11 06:25:00,30.7,16.4,30.06,NW,315,0.0,0.0,55,0.00,,,0.00,Wunderground v.1.15,2013-04-11 12:25:00,
2013-04-11 06:30:00,30.5,16.7,30.06,NW,315,0.0,0.0,56,0.00,,,0.00,Wunderground v.1.15,2013-04-11 12:30:00,
2013-04-11 06:35:00,30.4,16.6,30.07,NW,315,0.0,0.0,56,0.00,,,0.00,Wunderground v.1.15,2013-04-11 12:35:00,
2013-04-11 06:40:00,30.2,16.8,30.06,NW,315,0.0,0.0,57,0.00,,,0.00,Wunderground v.1.15,2013-04-11 12:40:00,
2013-04-11 06:45:00,30.1,17.1,30.06,NW,315,0.0,0.0,58,0.00,,,0.00,Wunderground v.1.15,2013-04-11 12:45:00,
2013-04-11 06:50:00,30.2,16.8,30.06,NW,315,0.0,0.0,57,0.00,,,0.00,Wunderground v.1.15,2013-04-11 12:50:00,
2013-04-11 06:55:00,30.4,17.0,30.07,NW,315,0.0,0.0,57,0.00,,,0.00,Wunderground v.1.15,2013-04-11 12:55:00,
2013-04-11 07:00:00,30.4,17.0,30.07,NW,315,0.0,0.0,57,0.00,,,0.00,Wunderground v.1.15,2013-04-11 13:00:00,
2013-04-11 07:05:00,30.3,17.3,30.07,NW,315,0.0,0.0,58,0.00,,,0.00,Wunderground v.1.15,2013-04-11 13:05:00,
2013-04-11 07:10:00,30.1,17.1,30.08,NW,315,0.0,0.0,58,0.00,,,0.00,Wunderground v.1.15,2013-04-11 13:10:00,
2013-04-11 07:15:00,30.0,17.4,30.08,NW,315,0.0,0.0,59,0.00,,,0.00,Wunderground v.1.15,2013-04-11 13:15:00,
2013-04-11 07:20:00,30.3,17.7,30.08,NW,315,0.0,1.0,59,0.00,,,0.00,Wunderground v.1.15,2013-04-11 13:20:00,
2013-04-11 07:30:00,30.9,17.8,30.08,NW,315,0.0,0.0,58,0.00,,,0.00,Wunderground v.1.15,2013-04-11 13:30:00,
2013-04-11 07:35:00,31.1,18.0,30.08,NW,315,0.0,0.0,58,0.00,,,0.00,Wunderground v.1.15,2013-04-11 13:35:00,
2013-04-11 07:40:00,31.5,18.0,30.08,NW,315,0.0,0.0,57,0.00,,,0.00,Wunderground v.1.15,2013-04-11 13:40:00,
2013-04-11 07:45:00,32.4,17.6,30.08,NW,315,0.0,0.0,54,0.00,,,0.00,Wunderground v.1.15,2013-04-11 13:45:00,
2013-04-11 07:50:00,34.4,18.1,30.08,NW,315,0.0,0.0,51,0.00,,,0.00,Wunderground v.1.15,2013-04-11 13:50:00,
2013-04-11 07:55:00,35.9,17.6,30.08,NW,315,0.0,0.0,47,0.00,,,0.00,Wunderground v.1.15,2013-04-11 13:55:00,
2013-04-11 08:00:00,36.8,18.4,30.08,NW,315,0.0,2.0,47,0.00,,,0.00,Wunderground v.1.15,2013-04-11 14:00:00,
2013-04-11 08:10:00,38.8,17.6,30.08,NW,315,1.0,1.0,42,0.00,,,0.00,Wunderground v.1.15,2013-04-11 14:10:00,
2013-04-11 08:15:00,39.6,17.2,30.08,NNW,340,1.0,3.0,40,0.00,,,0.00,Wunderground v.1.15,2013-04-11 14:15:00,
2013-04-11 08:20:00,40.4,16.8,30.08,NNW,340,2.0,2.0,38,0.00,,,0.00,Wunderground v.1.15,2013-04-11 14:20:00,
2013-04-11 08:30:00,41.3,17.6,30.08,NNW,341,1.0,3.0,38,0.00,,,0.00,Wunderground v.1.15,2013-04-11 14:30:00,
2013-04-11 08:35:00,41.8,17.4,30.09,NNW,341,1.0,3.0,37,0.00,,,0.00,Wunderground v.1.15,2013-04-11 14:35:00,
2013-04-11 08:40:00,42.2,17.8,30.09,NNW,341,1.0,1.0,37,0.00,,,0.00,Wunderground v.1.15,2013-04-11 14:40:00,
2013-04-11 08:45:00,42.7,17.6,30.10,NNW,335,1.0,3.0,36,0.00,,,0.00,Wunderground v.1.15,2013-04-11 14:45:00,
2013-04-11 08:50:00,42.7,16.9,30.10,NNE,24,2.0,2.0,35,0.00,,,0.00,Wunderground v.1.15,2013-04-11 14:50:00,
2013-04-11 08:55:00,43.2,16.7,30.10,North,5,3.0,3.0,34,0.00,,,0.00,Wunderground v.1.15,2013-04-11 14:55:00,
2013-04-11 09:00:00,43.5,17.6,30.10,NNW,332,3.0,3.0,35,0.00,,,0.00,Wunderground v.1.15,2013-04-11 15:00:00,
2013-04-11 09:10:00,44.2,17.6,30.09,North,5,2.0,2.0,34,0.00,,,0.00,Wunderground v.1.15,2013-04-11 15:10:00,
2013-04-11 09:15:00,44.9,18.2,30.09,North,5,2.0,2.0,34,0.00,,,0.00,Wunderground v.1.15,2013-04-11 15:15:00,
2013-04-11 09:20:00,45.3,17.8,30.09,North,5,2.0,2.0,33,0.00,,,0.00,Wunderground v.1.15,2013-04-11 15:20:00,
2013-04-11 09:25:00,45.4,17.9,30.09,NNE,12,2.0,4.0,33,0.00,,,0.00,Wunderground v.1.15,2013-04-11 15:25:00,
2013-04-11 09:30:00,45.8,17.6,30.09,NNE,15,3.0,4.0,32,0.00,,,0.00,Wunderground v.1.15,2013-04-11 15:30:00,
2013-04-11 09:35:00,45.8,17.6,30.09,North,360,3.0,4.0,32,0.00,,,0.00,Wunderground v.1.15,2013-04-11 15:35:00,
2013-04-11 09:40:00,46.2,17.9,30.08,North,360,3.0,4.0,32,0.00,,,0.00,Wunderground v.1.15,2013-04-11 15:40:00,
2013-04-11 09:50:00,46.9,18.5,30.08,North,355,2.0,3.0,32,0.00,,,0.00,Wunderground v.1.15,2013-04-11 15:50:00,
2013-04-11 10:00:00,47.8,18.6,30.08,NNW,336,3.0,3.0,31,0.00,,,0.00,Wunderground v.1.15,2013-04-11 16:00:00,
2013-04-11 10:05:00,48.6,19.3,30.08,NNW,336,2.0,5.0,31,0.00,,,0.00,Wunderground v.1.15,2013-04-11 16:05:00,
2013-04-11 10:10:00,49.5,18.5,30.08,North,360,3.0,6.0,29,0.00,,,0.00,Wunderground v.1.15,2013-04-11 16:10:00,
2013-04-11 10:15:00,49.5,18.5,30.08,West,266,4.0,10.0,29,0.00,,,0.00,Wunderground v.1.15,2013-04-11 16:15:00,
2013-04-11 10:20:00,49.9,18.9,30.08,NW,317,5.0,5.0,29,0.00,,,0.00,Wunderground v.1.15,2013-04-11 16:20:00,
2013-04-11 10:25:00,50.1,19.0,30.08,NE,40,4.0,6.0,29,0.00,,,0.00,Wunderground v.1.15,2013-04-11 16:25:00,
2013-04-11 10:30:00,50.3,18.4,30.08,WNW,292,4.0,4.0,28,0.00,,,0.00,Wunderground v.1.15,2013-04-11 16:30:00,
2013-04-11 10:35:00,50.6,18.6,30.07,North,360,3.0,4.0,28,0.00,,,0.00,Wunderground v.1.15,2013-04-11 16:35:00,
2013-04-11 10:40:00,50.8,18.8,30.08,NNW,327,3.0,3.0,28,0.00,,,0.00,Wunderground v.1.15,2013-04-11 16:40:00,
2013-04-11 10:50:00,52.1,19.9,30.07,North,355,3.0,3.0,28,0.00,,,0.00,Wunderground v.1.15,2013-04-11 16:50:00,
2013-04-11 10:55:00,51.9,18.9,30.07,NNW,343,4.0,4.0,27,0.00,,,0.00,Wunderground v.1.15,2013-04-11 16:55:00,
2013-04-11 11:00:00,52.3,19.3,30.07,North,355,3.0,5.0,27,0.00,,,0.00,Wunderground v.1.15,2013-04-11 17:00:00,
2013-04-11 11:10:00,52.3,20.1,30.06,NE,46,5.0,5.0,28,0.00,,,0.00,Wunderground v.1.15,2013-04-11 17:10:00,
2013-04-11 11:15:00,53.3,20.1,30.06,NNW,336,4.0,5.0,27,0.00,,,0.00,Wunderground v.1.15,2013-04-11 17:15:00,
2013-04-11 11:20:00,53.4,20.2,30.06,NNW,341,4.0,4.0,27,0.00,,,0.00,Wunderground v.1.15,2013-04-11 17:20:00,
2013-04-11 11:25:00,53.2,20.0,30.05,NNE,32,4.0,4.0,27,0.00,,,0.00,Wunderground v.1.15,2013-04-11 17:25:00,
2013-04-11 11:30:00,53.5,20.3,30.05,NNW,342,3.0,3.0,27,0.00,,,0.00,Wunderground v.1.15,2013-04-11 17:30:00,
2013-04-11 11:40:00,54.5,21.2,30.04,NNW,337,5.0,5.0,27,0.00,,,0.00,Wunderground v.1.15,2013-04-11 17:40:00,
2013-04-11 11:45:00,55.1,20.8,30.04,NNE,26,5.0,6.0,26,0.00,,,0.00,Wunderground v.1.15,2013-04-11 17:45:00,
2013-04-11 11:50:00,55.7,21.3,30.04,NNW,340,4.0,4.0,26,0.00,,,0.00,Wunderground v.1.15,2013-04-11 17:50:00,
2013-04-11 11:55:00,55.9,20.5,30.04,NNE,19,4.0,7.0,25,0.00,,,0.00,Wunderground v.1.15,2013-04-11 17:55:00,
2013-04-11 12:00:00,55.6,20.3,30.03,NNE,32,5.0,5.0,25,0.00,,,0.00,Wunderground v.1.15,2013-04-11 18:00:00,
2013-04-11 12:05:00,56.2,21.7,30.03,NNW,340,5.0,5.0,26,0.00,,,0.00,Wunderground v.1.15,2013-04-11 18:05:00,
2013-04-11 12:10:00,56.6,23.0,30.02,NW,318,5.0,5.0,27,0.00,,,0.00,Wunderground v.1.15,2013-04-11 18:10:00,
2013-04-11 12:15:00,57.8,22.2,30.01,NW,314,4.0,5.0,25,0.00,,,0.00,Wunderground v.1.15,2013-04-11 18:15:00,
2013-04-11 12:20:00,58.9,22.1,30.01,NW,304,4.0,10.0,24,0.00,,,0.00,Wunderground v.1.15,2013-04-11 18:20:00,
2013-04-11 12:25:00,60.0,21.0,30.01,SW,221,5.0,10.0,22,0.00,,,0.00,Wunderground v.1.15,2013-04-11 18:25:00,
2013-04-11 12:30:00,60.2,21.2,30.01,WNW,282,4.0,4.0,22,0.00,,,0.00,Wunderground v.1.15,2013-04-11 18:30:00,
2013-04-11 12:40:00,61.2,22.0,30.00,West,275,3.0,4.0,22,0.00,,,0.00,Wunderground v.1.15,2013-04-11 18:40:00,
2013-04-11 12:45:00,61.3,21.0,30.00,SW,225,3.0,4.0,21,0.00,,,0.00,Wunderground v.1.15,2013-04-11 18:45:00,
2013-04-11 12:50:00,61.1,21.9,30.00,SSW,212,3.0,3.0,22,0.00,,,0.00,Wunderground v.1.15,2013-04-11 18:50:00,
2013-04-11 12:55:00,60.0,19.9,30.00,NNE,28,3.0,3.0,21,0.00,,,0.00,Wunderground v.1.15,2013-04-11 18:55:00,
2013-04-11 13:00:00,58.6,20.9,30.00,NNE,23,2.0,2.0,23,0.00,,,0.00,Wunderground v.1.15,2013-04-11 19:00:00,
2013-04-11 13:05:00,59.0,21.2,29.99,NNE,23,1.0,2.0,23,0.00,,,0.00,Wunderground v.1.15,2013-04-11 19:05:00,
2013-04-11 13:10:00,59.6,22.7,29.99,NNE,19,1.0,1.0,24,0.00,,,0.00,Wunderground v.1.15,2013-04-11 19:10:00,
2013-04-11 13:15:00,60.4,21.3,29.98,NNW,344,2.0,5.0,22,0.00,,,0.00,Wunderground v.1.15,2013-04-11 19:15:00,
2013-04-11 13:20:00,60.7,22.6,29.98,North,350,3.0,4.0,23,0.00,,,0.00,Wunderground v.1.15,2013-04-11 19:20:00,
2013-04-11 13:25:00,62.1,22.8,29.98,NW,313,4.0,5.0,22,0.00,,,0.00,Wunderground v.1.15,2013-04-11 19:25:00,
2013-04-11 13:30:00,62.8,22.2,29.98,North,349,4.0,14.0,21,0.00,,,0.00,Wunderground v.1.15,2013-04-11 19:30:00,
2013-04-11 13:35:00,62.7,23.3,29.98,NW,308,4.0,14.0,22,0.00,,,0.00,Wunderground v.1.15,2013-04-11 19:35:00,
2013-04-11 13:40:00,63.1,22.5,29.97,NW,322,4.0,4.0,21,0.00,,,0.00,Wunderground v.1.15,2013-04-11 19:40:00,
2013-04-11 13:45:00,63.2,22.6,29.97,NNW,333,4.0,4.0,21,0.00,,,0.00,Wunderground v.1.15,2013-04-11 19:45:00,
2013-04-11 13:50:00,63.6,22.9,29.97,WNW,284,5.0,5.0,21,0.00,,,0.00,Wunderground v.1.15,2013-04-11 19:50:00,
2013-04-11 13:55:00,64.3,23.5,29.97,North,350,4.0,5.0,21,0.00,,,0.00,Wunderground v.1.15,2013-04-11 19:55:00,
2013-04-11 14:00:00,65.6,24.6,29.97,West,279,4.0,4.0,21,0.00,,,0.00,Wunderground v.1.15,2013-04-11 20:00:00,
2013-04-11 14:05:00,66.7,26.6,29.97,West,268,5.0,5.0,22,0.00,,,0.00,Wunderground v.1.15,2013-04-11 20:05:00,
2013-04-11 14:10:00,66.8,25.6,29.96,WNW,282,5.0,5.0,21,0.00,,,0.00,Wunderground v.1.15,2013-04-11 20:10:00,
2013-04-11 14:15:00,66.5,26.4,29.96,WNW,287,6.0,8.0,22,0.00,,,0.00,Wunderground v.1.15,2013-04-11 20:15:00,
2013-04-11 14:20:00,65.4,25.5,29.96,NW,305,7.0,9.0,22,0.00,,,0.00,Wunderground v.1.15,2013-04-11 20:20:00,
2013-04-11 14:25:00,65.0,27.3,29.96,WNW,296,6.0,9.0,24,0.00,,,0.00,Wunderground v.1.15,2013-04-11 20:25:00,
2013-04-11 14:30:00,64.8,27.1,29.95,NE,37,7.0,7.0,24,0.00,,,0.00,Wunderground v.1.15,2013-04-11 20:30:00,
2013-04-11 14:35:00,65.2,27.5,29.95,NNW,332,8.0,8.0,24,0.00,,,0.00,Wunderground v.1.15,2013-04-11 20:35:00,
2013-04-11 14:40:00,65.9,28.1,29.95,North,5,7.0,7.0,24,0.00,,,0.00,Wunderground v.1.15,2013-04-11 20:40:00,
2013-04-11 14:45:00,65.6,27.8,29.94,NNW,332,7.0,7.0,24,0.00,,,0.00,Wunderground v.1.15,2013-04-11 20:45:00,
2013-04-11 14:50:00,65.0,27.3,29.94,NW,306,7.0,7.0,24,0.00,,,0.00,Wunderground v.1.15,2013-04-11 20:50:00,
2013-04-11 14:55:00,65.6,27.8,29.93,NNW,344,6.0,7.0,24,0.00,,,0.00,Wunderground v.1.15,2013-04-11 20:55:00,
2013-04-11 15:00:00,64.7,27.0,29.93,NW,322,6.0,6.0,24,0.00,,,0.00,Wunderground v.1.15,2013-04-11 21:00:00,
2013-04-11 15:05:00,63.8,27.3,29.94,NW,321,7.0,7.0,25,0.00,,,0.00,Wunderground v.1.15,2013-04-11 21:05:00,
2013-04-11 15:10:00,64.7,28.0,29.93,North,360,6.0,8.0,25,0.00,,,0.00,Wunderground v.1.15,2013-04-11 21:10:00,
2013-04-11 15:15:00,64.1,27.5,29.93,NW,310,5.0,12.0,25,0.00,,,0.00,Wunderground v.1.15,2013-04-11 21:15:00,
2013-04-11 15:20:00,63.2,26.8,29.92,NW,307,6.0,6.0,25,0.00,,,0.00,Wunderground v.1.15,2013-04-11 21:20:00,
2013-04-11 15:25:00,62.9,27.5,29.92,NNW,331,5.0,9.0,26,0.00,,,0.00,Wunderground v.1.15,2013-04-11 21:25:00,
2013-04-11 15:35:00,62.6,27.2,29.92,NE,34,6.0,12.0,26,0.00,,,0.00,Wunderground v.1.15,2013-04-11 21:35:00,
2013-04-11 15:40:00,62.4,27.0,29.91,North,355,7.0,11.0,26,0.00,,,0.00,Wunderground v.1.15,2013-04-11 21:40:00,
2013-04-11 15:45:00,62.6,27.2,29.91,NE,42,6.0,11.0,26,0.00,,,0.00,Wunderground v.1.15,2013-04-11 21:45:00,
2013-04-11 15:50:00,62.7,27.3,29.91,NNE,16,5.0,6.0,26,0.00,,,0.00,Wunderground v.1.15,2013-04-11 21:50:00,
2013-04-11 15:55:00,63.2,27.7,29.91,North,351,5.0,6.0,26,0.00,,,0.00,Wunderground v.1.15,2013-04-11 21:55:00,
2013-04-11 16:00:00,64.2,27.6,29.90,WNW,295,6.0,7.0,25,0.00,,,0.00,Wunderground v.1.15,2013-04-11 22:00:00,
2013-04-11 16:05:00,64.4,27.8,29.90,WNW,298,7.0,10.0,25,0.00,,,0.00,Wunderground v.1.15,2013-04-11 22:05:00,
2013-04-11 16:10:00,64.9,28.2,29.90,West,277,6.0,6.0,25,0.00,,,0.00,Wunderground v.1.15,2013-04-11 22:10:00,
2013-04-11 16:20:00,64.4,27.8,29.89,NW,318,6.0,6.0,25,0.00,,,0.00,Wunderground v.1.15,2013-04-11 22:20:00,
2013-04-11 16:25:00,63.8,27.3,29.89,NNW,338,6.0,6.0,25,0.00,,,0.00,Wunderground v.1.15,2013-04-11 22:25:00,
2013-04-11 16:30:00,63.8,27.3,29.89,NNW,344,6.0,6.0,25,0.00,,,0.00,Wunderground v.1.15,2013-04-11 22:30:00,
2013-04-11 16:35:00,64.1,27.5,29.89,NW,306,5.0,6.0,25,0.00,,,0.00,Wunderground v.1.15,2013-04-11 22:35:00,
2013-04-11 16:40:00,64.1,27.5,29.89,NNW,333,5.0,11.0,25,0.00,,,0.00,Wunderground v.1.15,2013-04-11 22:40:00,
2013-04-11 16:45:00,63.8,26.3,29.89,North,10,5.0,11.0,24,0.00,,,0.00,Wunderground v.1.15,2013-04-11 22:45:00,
2013-04-11 16:50:00,63.6,27.1,29.89,NW,324,5.0,5.0,25,0.00,,,0.00,Wunderground v.1.15,2013-04-11 22:50:00,
2013-04-11 16:55:00,63.6,27.1,29.89,ENE,57,5.0,6.0,25,0.00,,,0.00,Wunderground v.1.15,2013-04-11 22:55:00,
2013-04-11 17:00:00,63.6,27.1,29.89,North,11,5.0,5.0,25,0.00,,,0.00,Wunderground v.1.15,2013-04-11 23:00:00,
2013-04-11 17:05:00,63.4,26.9,29.88,NNW,344,5.0,5.0,25,0.00,,,0.00,Wunderground v.1.15,2013-04-11 23:05:00,
2013-04-11 17:10:00,63.4,27.9,29.88,NW,311,5.0,5.0,26,0.00,,,0.00,Wunderground v.1.15,2013-04-11 23:10:00,
2013-04-11 17:15:00,63.3,26.8,29.88,WNW,301,5.0,9.0,25,0.00,,,0.00,Wunderground v.1.15,2013-04-11 23:15:00,
2013-04-11 17:20:00,63.3,27.8,29.88,NNW,346,4.0,9.0,26,0.00,,,0.00,Wunderground v.1.15,2013-04-11 23:20:00,
2013-04-11 17:25:00,62.9,28.4,29.88,NW,317,5.0,9.0,27,0.00,,,0.00,Wunderground v.1.15,2013-04-11 23:25:00,
2013-04-11 17:30:00,62.8,28.3,29.88,WNW,302,6.0,6.0,27,0.00,,,0.00,Wunderground v.1.15,2013-04-11 23:30:00,
2013-04-11 17:35:00,62.9,27.5,29.88,NW,311,5.0,6.0,26,0.00,,,0.00,Wunderground v.1.15,2013-04-11 23:35:00,
2013-04-11 17:40:00,62.7,28.2,29.88,NW,315,5.0,5.0,27,0.00,,,0.00,Wunderground v.1.15,2013-04-11 23:40:00,
2013-04-11 17:45:00,62.5,28.0,29.88,NW,323,5.0,5.0,27,0.00,,,0.00,Wunderground v.1.15,2013-04-11 23:45:00,
2013-04-11 17:50:00,62.0,27.6,29.88,NW,307,6.0,6.0,27,0.00,,,0.00,Wunderground v.1.15,2013-04-11 23:50:00,
2013-04-11 17:55:00,61.8,27.4,29.88,NNE,19,6.0,6.0,27,0.00,,,0.00,Wunderground v.1.15,2013-04-11 23:55:00,
2013-04-11 18:00:00,61.8,27.4,29.88,NNW,339,5.0,5.0,27,0.00,,,0.00,Wunderground v.1.15,2013-04-12 00:00:00,
2013-04-11 18:05:00,61.6,27.3,29.89,NNE,13,5.0,5.0,27,0.00,,,0.00,Wunderground v.1.15,2013-04-12 00:05:00,
2013-04-11 18:10:00,61.7,28.2,29.88,NNW,344,5.0,5.0,28,0.00,,,0.00,Wunderground v.1.15,2013-04-12 00:10:00,
2013-04-11 18:15:00,61.4,27.1,29.88,North,360,6.0,7.0,27,0.00,,,0.00,Wunderground v.1.15,2013-04-12 00:15:00,
2013-04-11 18:25:00,61.3,27.9,29.88,NNW,337,6.0,11.0,28,0.00,,,0.00,Wunderground v.1.15,2013-04-12 00:25:00,
2013-04-11 18:30:00,61.4,28.0,29.88,NE,46,5.0,5.0,28,0.00,,,0.00,Wunderground v.1.15,2013-04-12 00:30:00,
2013-04-11 18:35:00,61.1,27.7,29.88,NNW,341,5.0,5.0,28,0.00,,,0.00,Wunderground v.1.15,2013-04-12 00:35:00,
2013-04-11 18:40:00,60.9,27.5,29.88,North,355,5.0,5.0,28,0.00,,,0.00,Wunderground v.1.15,2013-04-12 00:40:00,
2013-04-11 18:45:00,60.7,27.4,29.88,NNW,336,5.0,6.0,28,0.00,,,0.00,Wunderground v.1.15,2013-04-12 00:45:00,
2013-04-11 18:55:00,60.8,27.5,29.88,NNW,344,5.0,5.0,28,0.00,,,0.00,Wunderground v.1.15,2013-04-12 00:55:00,
2013-04-11 19:00:00,60.5,28.1,29.88,NNW,327,5.0,5.0,29,0.00,,,0.00,Wunderground v.1.15,2013-04-12 01:00:00,
2013-04-11 19:05:00,60.3,27.9,29.88,NE,35,5.0,9.0,29,0.00,,,0.00,Wunderground v.1.15,2013-04-12 01:05:00,
2013-04-11 19:10:00,60.2,27.8,29.88,NNW,346,5.0,5.0,29,0.00,,,0.00,Wunderground v.1.15,2013-04-12 01:10:00,
2013-04-11 19:15:00,60.0,28.4,29.88,North,355,5.0,5.0,30,0.00,,,0.00,Wunderground v.1.15,2013-04-12 01:15:00,
2013-04-11 19:20:00,59.8,28.3,29.88,NNW,331,4.0,4.0,30,0.00,,,0.00,Wunderground v.1.15,2013-04-12 01:20:00,
2013-04-11 19:25:00,59.7,29.0,29.88,NNW,328,3.0,6.0,31,0.00,,,0.00,Wunderground v.1.15,2013-04-12 01:25:00,
2013-04-11 19:30:00,59.4,28.7,29.88,NW,320,4.0,4.0,31,0.00,,,0.00,Wunderground v.1.15,2013-04-12 01:30:00,
2013-04-11 19:35:00,59.2,28.5,29.88,North,350,3.0,5.0,31,0.00,,,0.00,Wunderground v.1.15,2013-04-12 01:35:00,
2013-04-11 19:40:00,59.0,28.4,29.89,North,5,3.0,4.0,31,0.00,,,0.00,Wunderground v.1.15,2013-04-12 01:40:00,
2013-04-11 19:45:00,59.0,28.4,29.89,North,5,4.0,4.0,31,0.00,,,0.00,Wunderground v.1.15,2013-04-12 01:45:00,
2013-04-11 19:50:00,59.0,28.4,29.89,NNE,14,4.0,6.0,31,0.00,,,0.00,Wunderground v.1.15,2013-04-12 01:50:00,
2013-04-11 20:00:00,58.7,28.1,29.89,NNE,17,4.0,4.0,31,0.00,,,0.00,Wunderground v.1.15,2013-04-12 02:00:00,
2013-04-11 20:05:00,58.5,27.9,29.89,NNW,348,3.0,5.0,31,0.00,,,0.00,Wunderground v.1.15,2013-04-12 02:05:00,
2013-04-11 20:10:00,58.4,27.9,29.89,NW,307,3.0,4.0,31,0.00,,,0.00,Wunderground v.1.15,2013-04-12 02:10:00,
2013-04-11 20:20:00,58.2,27.7,29.89,NNW,346,3.0,7.0,31,0.00,,,0.00,Wunderground v.1.15,2013-04-12 02:20:00,
2013-04-11 20:30:00,58.0,27.5,29.89,North,5,3.0,3.0,31,0.00,,,0.00,Wunderground v.1.15,2013-04-12 02:30:00,
2013-04-11 20:35:00,57.9,28.2,29.90,NW,326,3.0,3.0,32,0.00,,,0.00,Wunderground v.1.15,2013-04-12 02:35:00,
2013-04-11 20:40:00,57.8,28.1,29.90,North,355,3.0,3.0,32,0.00,,,0.00,Wunderground v.1.15,2013-04-12 02:40:00,
2013-04-11 20:45:00,57.7,28.8,29.90,North,355,3.0,3.0,33,0.00,,,0.00,Wunderground v.1.15,2013-04-12 02:45:00,
2013-04-11 20:50:00,57.6,28.7,29.90,NNE,19,3.0,5.0,33,0.00,,,0.00,Wunderground v.1.15,2013-04-12 02:50:00,
2013-04-11 20:55:00,57.6,28.7,29.90,North,360,3.0,5.0,33,0.00,,,0.00,Wunderground v.1.15,2013-04-12 02:55:00,
2013-04-11 21:00:00,57.5,28.6,29.90,North,5,3.0,3.0,33,0.00,,,0.00,Wunderground v.1.15,2013-04-12 03:00:00,
2013-04-11 21:05:00,57.4,28.5,29.90,WNW,282,3.0,3.0,33,0.00,,,0.00,Wunderground v.1.15,2013-04-12 03:05:00,
2013-04-11 21:10:00,57.3,28.4,29.91,North,360,2.0,5.0,33,0.00,,,0.00,Wunderground v.1.15,2013-04-12 03:10:00,
2013-04-11 21:15:00,57.3,28.4,29.91,NNW,344,3.0,5.0,33,0.00,,,0.00,Wunderground v.1.15,2013-04-12 03:15:00,
2013-04-11 21:20:00,57.3,28.4,29.91,NW,323,3.0,3.0,33,0.00,,,0.00,Wunderground v.1.15,2013-04-12 03:20:00,
2013-04-11 21:25:00,57.2,29.1,29.91,NNE,29,3.0,4.0,34,0.00,,,0.00,Wunderground v.1.15,2013-04-12 03:25:00,
2013-04-11 21:30:00,57.1,29.0,29.91,NW,319,2.0,2.0,34,0.00,,,0.00,Wunderground v.1.15,2013-04-12 03:30:00,
2013-04-11 21:35:00,57.1,28.2,29.91,NNW,348,3.0,3.0,33,0.00,,,0.00,Wunderground v.1.15,2013-04-12 03:35:00,
2013-04-11 21:40:00,56.9,28.8,29.91,North,355,3.0,3.0,34,0.00,,,0.00,Wunderground v.1.15,2013-04-12 03:40:00,
2013-04-11 21:45:00,56.8,28.7,29.92,North,351,3.0,3.0,34,0.00,,,0.00,Wunderground v.1.15,2013-04-12 03:45:00,
2013-04-11 21:50:00,56.8,28.7,29.92,NNE,15,3.0,3.0,34,0.00,,,0.00,Wunderground v.1.15,2013-04-12 03:50:00,
2013-04-11 21:55:00,56.6,28.5,29.92,NNW,340,2.0,3.0,34,0.00,,,0.00,Wunderground v.1.15,2013-04-12 03:55:00,
2013-04-11 22:00:00,56.5,28.4,29.92,NNW,333,2.0,2.0,34,0.00,,,0.00,Wunderground v.1.15,2013-04-12 04:00:00,
2013-04-11 22:05:00,56.4,28.3,29.92,NNW,345,2.0,2.0,34,0.00,,,0.00,Wunderground v.1.15,2013-04-12 04:05:00,
2013-04-11 22:10:00,56.3,28.3,29.92,NW,321,3.0,3.0,34,0.00,,,0.00,Wunderground v.1.15,2013-04-12 04:10:00,
2013-04-11 22:15:00,56.2,28.2,29.92,North,360,2.0,3.0,34,0.00,,,0.00,Wunderground v.1.15,2013-04-12 04:15:00,
2013-04-11 22:25:00,55.9,28.6,29.92,North,11,2.0,3.0,35,0.00,,,0.00,Wunderground v.1.15,2013-04-12 04:25:00,
2013-04-11 22:30:00,55.8,28.5,29.92,North,11,2.0,2.0,35,0.00,,,0.00,Wunderground v.1.15,2013-04-12 04:30:00,
2013-04-11 22:35:00,55.6,28.4,29.92,North,5,2.0,3.0,35,0.00,,,0.00,Wunderground v.1.15,2013-04-12 04:35:00,
2013-04-11 22:40:00,55.5,28.3,29.92,North,355,3.0,3.0,35,0.00,,,0.00,Wunderground v.1.15,2013-04-12 04:40:00,
2013-04-11 22:45:00,55.3,28.1,29.92,North,360,2.0,3.0,35,0.00,,,0.00,Wunderground v.1.15,2013-04-12 04:45:00,
2013-04-11 22:50:00,55.1,27.9,29.93,North,360,2.0,2.0,35,0.00,,,0.00,Wunderground v.1.15,2013-04-12 04:50:00,
2013-04-11 22:55:00,55.0,27.8,29.92,North,360,2.0,2.0,35,0.00,,,0.00,Wunderground v.1.15,2013-04-12 04:55:00,
2013-04-11 23:00:00,54.8,27.6,29.92,North,5,3.0,3.0,35,0.00,,,0.00,Wunderground v.1.15,2013-04-12 05:00:00,
2013-04-11 23:05:00,54.5,28.1,29.93,North,5,2.0,5.0,36,0.00,,,0.00,Wunderground v.1.15,2013-04-12 05:05:00,
2013-04-11 23:10:00,54.3,27.9,29.92,North,360,2.0,3.0,36,0.00,,,0.00,Wunderground v.1.15,2013-04-12 05:10:00,
2013-04-11 23:15:00,54.2,27.8,29.92,North,360,2.0,3.0,36,0.00,,,0.00,Wunderground v.1.15,2013-04-12 05:15:00,
2013-04-11 23:20:00,53.9,27.5,29.92,North,360,1.0,4.0,36,0.00,,,0.00,Wunderground v.1.15,2013-04-12 05:20:00,
2013-04-11 23:25:00,53.7,28.0,29.92,North,360,1.0,4.0,37,0.00,,,0.00,Wunderground v.1.15,2013-04-12 05:25:00,
2013-04-11 23:30:00,53.5,27.8,29.92,North,360,1.0,6.0,37,0.00,,,0.00,Wunderground v.1.15,2013-04-12 05:30:00,
2013-04-11 23:35:00,53.3,27.7,29.92,North,360,0.0,6.0,37,0.00,,,0.00,Wunderground v.1.15,2013-04-12 05:35:00,
2013-04-11 23:40:00,53.2,27.6,29.92,North,360,0.0,0.0,37,0.00,,,0.00,Wunderground v.1.15,2013-04-12 05:40:00,
2013-04-11 23:45:00,52.8,27.2,29.92,North,360,0.0,0.0,37,0.00,,,0.00,Wunderground v.1.15,2013-04-12 05:45:00,
2013-04-11 23:50:00,52.5,27.6,29.92,North,360,0.0,0.0,38,0.00,,,0.00,Wunderground v.1.15,2013-04-12 05:50:00,
2013-04-11 23:55:00,52.1,27.2,29.92,North,360,0.0,0.0,38,0.00,,,0.00,Wunderground v.1.15,2013-04-12 05:55:00,